This is the latest recevied weather packets stored in our database for station/object K1WJY. If no packets are shown the sender has not sent any weather packets the latest 10 day(s).
| Time | Temp. | Humidity | Pressure | Rain* | Wind** | Luminosity | Snow |
|---|---|---|---|---|---|---|---|
| 1777836681 | 5.56° C | 99% | 1004.3 hPa | 1.27 mm | - | 118 W/m² | - |
| 1777836376 | 5° C | 99% | 1004.1 hPa | 0 mm | - | 85 W/m² | - |
| 1777836072 | 5.56° C | 99% | 1004.2 hPa | 1.78 mm | - | 144 W/m² | - |
| 1777835769 | 5.56° C | 99% | 1003.9 hPa | 1.78 mm | - | 141 W/m² | - |
| 1777835466 | 5° C | 99% | 1004.3 hPa | 1.27 mm | - | 141 W/m² | - |
| 1777835163 | 5.56° C | 99% | 1004 hPa | 1.27 mm | - | 144 W/m² | - |
| 1777834860 | 5.56° C | 99% | 1004.3 hPa | 0 mm | - | 148 W/m² | - |
| 1777834557 | 5.56° C | 99% | 1004.4 hPa | 0 mm | - | 143 W/m² | - |
| 1777834256 | 5.56° C | 99% | 1004 hPa | 1.78 mm | - | 135 W/m² | - |
| 1777833952 | 5.56° C | 99% | 1004.4 hPa | 1.78 mm | - | 128 W/m² | - |
| 1777833649 | 5.56° C | 99% | 1004.4 hPa | 1.27 mm | - | 118 W/m² | - |
| 1777833345 | 6.11° C | 99% | 1004.5 hPa | 1.27 mm | - | 90 W/m² | - |
| 1777833043 | 6.11° C | 99% | 1004.5 hPa | 0 mm | - | 80 W/m² | - |
| 1777832741 | 6.11° C | 99% | 1004.4 hPa | 1.78 mm | - | 70 W/m² | - |
| 1777832439 | 6.67° C | 99% | 1004.6 hPa | 3.05 mm | - | 114 W/m² | - |
| 1777832136 | 6.67° C | 99% | 1004.8 hPa | 1.27 mm | - | 101 W/m² | - |
| 1777831832 | 6.67° C | 99% | 1004.7 hPa | 1.78 mm | - | 106 W/m² | - |
| 1777831529 | 6.67° C | 99% | 1004.7 hPa | 3.05 mm | - | 106 W/m² | - |
| 1777831227 | 6.67° C | 99% | 1004.9 hPa | 3.05 mm | - | 98 W/m² | - |
| 1777830924 | 6.67° C | 99% | 1004.9 hPa | 3.56 mm | - | 82 W/m² | - |
| 1777830620 | 6.67° C | 99% | 1004.9 hPa | 1.78 mm | - | 93 W/m² | - |
| 1777830318 | 6.67° C | 99% | 1005 hPa | 1.27 mm | - | 91 W/m² | - |
| 1777830014 | 7.22° C | 99% | 1005.1 hPa | 3.05 mm | - | 76 W/m² | - |
| 1777829709 | 7.22° C | 99% | 1005 hPa | 1.78 mm | - | 86 W/m² | - |
| 1777829406 | 6.67° C | 99% | 1005.1 hPa | 1.27 mm | - | 86 W/m² | - |
* Rain latest hour (hover to see other rain measurements)
** Current wind speed in m/s (hover to see current wind gust speed)